< < Back
Terminal Aerodrome Forecast


Current Version              Previous Versions:   1  2  3  4  5  6  7  8  9  

Terminal Aerodrome Forecast

080
FTUS42 KGSP 062337
TAFAND
TAF
KAND 062337Z 0700/0724 20005KT P6SM BKN250
     FM070900 00000KT P6SM SCT250
     FM071100 00000KT 5SM BR FEW250
     FM071300 00000KT P6SM FEW250
     FM071800 24006KT P6SM FEW050=

Latest METAR

656
SAUS70 KWBC 070400 RRD
MTRAND
METAR KAND 070356Z AUTO 00000KT 10SM CLR 22/20 A3010 RMK AO2 SLP184
T02220200


USA.gov is the U.S. government's official web portal to all federal, state and local government web resources and services.